Showing default

HULIANWANG DIGUI-07, 62329

Orbit data source: Space-Track

HULIANWANG DIGUI-07, 62329 is a payload satellite owned by Zhongguo Xingwang (CN) in LEO that was launched on Mon, 16 Dec 2024 UTC via a CHANG ZHENG 5B/YZ-2 launch vehicle from the Wenchang Satellite Launch Center (WSC). Payload-class satellites include a variety of spacecraft equipped with specific instruments for various scientific and technological missions. These include communications satellites like Starlink; space stations such as the ISS; scientific satellites like the Hubble; Earth observation satellites from companies like Planet Labs, Umbra, and HawkEye 360; GPS; miniature CubeSats for education and research; and military/defense satellites.

Loading next visibility...
Identifier
62329, 2024-240G
Orbit
LEO
Country
Flag of CNCN / PRC
Related business
Manufacturer
CAST?
Mission
Operational Civil Communications
Bus & Motor
GUOWANG C, Unknown motor
Mass
~800 kg wet, ~800 kg dry
Launch date (UTC)
2024-12-16 (1 year ago)
Launch vehicle
CHANG ZHENG 5B/YZ-2
Launch site
Wenchang Satellite Launch Center (WSC)
Object type
Payload
Rocket body
Debris
Shape & HBR
Box + 2 Pan, 5.0 m
Radar Cross Section
5.935 m², Large (>1 m²)

Expand to show TLE details & history
Last TLE update: 14 hours ago

TLE from 14 hours ago
0 HULIANWANG DIGUI-07
1 62329U 24240G   25341.28750285  .00000119  00000-0  24242-3 0  9994
2 62329  86.4944  47.7710 0001732  92.0536 268.0797 13.24412768 47247
Epoch: 2025-12-07T06:54Z
TLE epoch observation values (Epoch: 2025-12-07T06:54:00.246Z)
Latitude
0.00005°
Longitude
-132.03307°
Altitude
1,170.85 km
Speed
7.268 km/s
True Right ascension
03h 11m 05s
True Declination
0° 00' 00"
Sunlit
Object was in full shadow at epoch
Visualization orbit readout
Latitude
Unknown
Longitude
Unknown
Altitude
Unknown
Speed
Unknown
Apparent Right ascension
Unknown
Apparent Declination
Unknown
Sunlit
N/A
Visualization observer readout
Local Sidereal Time
18:32:45
Azimuth
Unknown
Elevation
Unknown
Doppler factor
Unknown
Orbital elements
Apogee altitude
1,166.338 km
Perigee altitude
1,163.725 km
Semi-major axis
7,543.169 km
Eccentricity
0.00017
Inclination
86.4944°
RAAN
47.771°
Arg. of periapsis
92.0536°
True anomaly
268.05986°
Mean anomaly
268.0797°
Eccentric anomaly
268.06978°
Mean motion
3.31293 °/min
Orbital period
108.67 mins
BSTAR
0.00024242
Loading maneuver chart data...
Computing Atmospheric mass density...
Loading historical data...
Loading historical data...
Loading historical data...
Loading historical data...
Loading historical data...
Loading historical data...
Loading historical data...

Documentation

Showing up to 5 results
|